This demonstration page uses our WeatherBlox Daily Observations layout. Learn more.

Left ArrowRight Arrow

Hourly Observations for September 4, 2021

Temp ( °F °C ) Dew Point ( °F °C ) Humidity (%) Winds ( mph kmh ) Pressure ( in mb ) Visibility ( mi km ) Precip ( " mm )
12:53 am 00:53 Clear 65 18.3 63 17.2 93 93 NE 6 9 29.96 1015 10 16 0.00 0.00
1:53 am 01:53 Clear 65 18.3 62 16.7 90 90 NNW 3 6 29.97 1015 10 16 0.00 0.00
2:53 am 02:53 Clear 64 17.8 63 17.2 96 96 Calm 29.98 1015 9 14 0.00 0.00
3:53 am 03:53 Clear 64 17.8 62 16.7 93 93 ESE 5 7 29.98 1015 10 16 0.00 0.00
4:53 am 04:53 Mostly Clear 63 17.2 62 16.7 97 97 ENE 6 9 29.97 1015 8 13 0.00 0.00
5:53 am 05:53 Cloudy with Light Rain 63 17.2 61 16.1 93 93 N 6 9 29.98 1015 10 16 0.00 0.00
6:22 am 06:22 Cloudy 63 17.2 61 16.1 93 93 NNE 6 9 29.98 1015 10 16 0.00 0.00
6:53 am 06:53 Cloudy 63 17.2 61 16.1 93 93 Calm 30.01 1016 10 16 0.00 0.00
7:53 am 07:53 Cloudy 63 17.2 61 16.1 93 93 Calm 30.03 1017 10 16 0.00 0.00
8:53 am 08:53 Cloudy with Light Rain 63 17.2 62 16.7 97 97 WNW 6 9 30.05 1018 7 11 0.00 0.00
9:53 am 09:53 Cloudy 65 18.3 62 16.7 90 90 NNW 8 13 30.05 1018 10 16 0.00 0.00
10:20 am 10:20 Cloudy 66 18.9 61 16.1 84 84 N 7 11 30.03 1017 10 16 0.00 0.00
10:30 am 10:30 Cloudy 66 18.9 61 16.1 84 84 NNW 9 15 30.03 1017 10 16 0.00 0.00
10:53 am 10:53 Partly Cloudy 66 18.9 61 16.1 84 84 N 9 15 30.06 1018 10 16 0.00 0.00
11:53 am 11:53 Mostly Sunny 72 22.2 61 16.1 68 68 N 12 19 30.05 1018 10 16 0.00 0.00
12:53 pm 12:53 Sunny 74 23.3 61 16.1 64 64 NNE 10 17 30.04 1017 10 16 0.00 0.00
1:53 pm 13:53 Sunny 76 24.4 61 16.1 60 60 N 8 13 30.02 1017 10 16 0.00 0.00
2:53 pm 14:53 Sunny 78 25.6 59 15 52 52 VRB 7 11 30.01 1016 10 16 0.00 0.00
3:53 pm 15:53 Sunny 79 26.1 58 14.4 49 49 N 8 13 29.99 1016 10 16 0.00 0.00
4:53 pm 16:53 Sunny 79 26.1 57 13.9 47 47 NE 7 11 29.99 1016 10 16 0.00 0.00
5:53 pm 17:53 Sunny 79 26.1 59 15 50 50 NNE 5 7 29.99 1016 10 16 0.00 0.00
6:53 pm 18:53 Sunny 76 24.4 59 15 56 56 E 8 13 29.99 1016 10 16 0.00 0.00
7:53 pm 19:53 Sunny 71 21.7 59 15 66 66 E 5 7 30.01 1016 10 16 0.00 0.00
8:53 pm 20:53 Clear 68 20 59 15 73 73 ESE 5 7 30.01 1016 10 16 0.00 0.00
9:53 pm 21:53 Clear 70 21.1 59 15 68 68 SSE 5 7 30.03 1017 10 16 0.00 0.00
10:53 pm 22:53 Clear 68 20 61 16.1 78 78 SSE 6 9 30.04 1017 10 16 0.00 0.00
11:53 pm 23:53 Cloudy 67 19.4 60 15.6 79 79 S 5 7 30.03 1017 10 16 0.00 0.00

Powered by AerisWeather